This is the latest recevied weather packets stored in our database for station/object KD4MBW. If no packets are shown the sender has not sent any weather packets the latest 10 day(s).
| Time | Temp. | Humidity | Pressure | Rain* | Wind** | Luminosity | Snow |
|---|---|---|---|---|---|---|---|
| 1787931368 | 24.44° C | 99% | 1018.2 hPa | 0 mm | - | 572 W/m² | - |
| 1787931064 | 23.89° C | 99% | 1017.8 hPa | 0 mm | - | 456 W/m² | - |
| 1787930763 | 23.89° C | 99% | 1018 hPa | 0 mm | - | 555 W/m² | - |
| 1787930457 | 23.89° C | 99% | 1017.9 hPa | 0 mm | - | 477 W/m² | - |
| 1787930152 | 23.89° C | 99% | 1017.8 hPa | 0 mm | - | 412 W/m² | - |
| 1787929851 | 23.89° C | 99% | 1017.9 hPa | 0 mm | - | 302 W/m² | - |
| 1787929546 | 23.33° C | 99% | 1017.9 hPa | 0 mm | - | 303 W/m² | - |
| 1787929245 | 23.33° C | 99% | 1017.6 hPa | 0 mm | - | 334 W/m² | - |
| 1787928943 | 23.33° C | 99% | 1017.5 hPa | 0 mm | - | 275 W/m² | - |
| 1787928638 | 23.33° C | 99% | 1017.6 hPa | 0 mm | - | 245 W/m² | - |
| 1787928337 | 22.78° C | 99% | 1017.7 hPa | 0 mm | - | 214 W/m² | - |
| 1787928036 | 22.78° C | 99% | 1017.6 hPa | 0 mm | - | 183 W/m² | - |
| 1787927735 | 22.78° C | 99% | 1017.5 hPa | 0 mm | - | 158 W/m² | - |
| 1787927430 | 22.78° C | 99% | 1017.5 hPa | 0 mm | - | 140 W/m² | - |
| 1787927126 | 22.78° C | 99% | 1017.5 hPa | 0 mm | - | 131 W/m² | - |
| 1787926820 | 22.78° C | 99% | 1017.5 hPa | 0 mm | - | 121 W/m² | - |
| 1787926520 | 22.78° C | 99% | 1017.4 hPa | 0 mm | - | 112 W/m² | - |
| 1787926218 | 22.78° C | 99% | 1017.3 hPa | 0 mm | - | 102 W/m² | - |
| 1787925912 | 22.78° C | 99% | 1017.1 hPa | 0 mm | - | 95 W/m² | - |
| 1787925607 | 22.78° C | 99% | 1017.2 hPa | 0 mm | - | 88 W/m² | - |
| 1787925301 | 22.78° C | 99% | 1016.9 hPa | 0 mm | - | 77 W/m² | - |
| 1787925000 | 22.22° C | 99% | 1016.8 hPa | 1.78 mm | - | 65 W/m² | - |
| 1787924695 | 22.78° C | 99% | 1017 hPa | 1.78 mm | - | 53 W/m² | - |
| 1787924390 | 22.22° C | 99% | 1016.9 hPa | 0 mm | - | 44 W/m² | - |
| 1787924085 | 22.78° C | 99% | 1016.9 hPa | 0 mm | - | 40 W/m² | - |
* Rain latest hour (hover to see other rain measurements)
** Current wind speed in m/s (hover to see current wind gust speed)